ORBCOMM-X [-] 1 21576U 91050C 12033.91399249 .00000247 00000-0 92041-4 0 8397 2 21576 98.6012 357.9731 0004495 46.2279 313.9276 14.40280406 78821 ORBCOMM FM01 [-] 1 23545U 95017A 12034.20624553 .00001536 00000-0 31172-3 0 250 2 23545 69.9697 16.0196 0011551 286.2015 73.7851 14.63087597894515 ORBCOMM FM02 [-] 1 23546U 95017B 12034.40375966 .00001567 00000-0 32025-3 0 829 2 23546 69.9771 18.3748 0013061 275.8227 84.1432 14.62720512894548 ORBCOMM FM08 [+] 1 25112U 97084A 12034.72348550 .00000734 00000-0 30355-3 0 256 2 25112 45.0174 145.5194 0010456 209.1427 150.8831 14.35118884738326 ORBCOMM FM10 [+] 1 25113U 97084B 12034.34037928 .00000778 00000-0 31899-3 0 7472 2 25113 45.0191 148.2193 0007947 184.7742 175.3036 14.35107182738265 ORBCOMM FM11 [+] 1 25114U 97084C 12034.33246855 .00000887 00000-0 35707-3 0 6868 2 25114 45.0172 147.8317 0008071 184.9260 175.1533 14.35109416738266 ORBCOMM FM12 [+] 1 25115U 97084D 12033.75868192 .00000772 00000-0 31695-3 0 6852 2 25115 45.0168 150.2860 0007601 186.0582 174.0183 14.35114193738189 ORBCOMM FM09 [+] 1 25116U 97084E 12034.32425440 .00000768 00000-0 31580-3 0 8481 2 25116 45.0175 148.0550 0007323 176.5211 183.5690 14.35097354738269 ORBCOMM FM05 [+] 1 25117U 97084F 12033.73142009 .00000554 00000-0 24160-3 0 7807 2 25117 45.0174 151.0820 0004450 200.4905 159.5780 14.35104077738172 ORBCOMM FM06 [+] 1 25118U 97084G 12033.72348368 .00000505 00000-0 22442-3 0 6674 2 25118 45.0179 150.9899 0003966 205.7117 154.3540 14.35115910738171 ORBCOMM FM07 [+] 1 25119U 97084H 12033.73952231 .00000803 00000-0 32780-3 0 9430 2 25119 45.0176 151.1075 0005362 190.2521 169.8214 14.35111040738176 ORBCOMM FM03 [-] 1 25158U 98007B 12033.78904034 .00000416 00000-0 22504-3 0 6702 2 25158 107.9618 259.7995 0048318 70.3703 290.2638 14.26206267726422 ORBCOMM FM04 [+] 1 25159U 98007C 12034.13386049 .00000386 00000-0 21284-3 0 6691 2 25159 107.9606 260.3060 0043985 70.8764 289.7113 14.26241672726507 ORBCOMM FM17 [-] 1 25413U 98046A 12033.64580361 .00000741 00000-0 35059-3 0 8057 2 25413 44.9965 103.5663 0001261 164.3239 195.7653 14.28152817703955 ORBCOMM FM18 [+] 1 25414U 98046B 12034.18223814 .00000593 00000-0 28361-3 0 8328 2 25414 44.9965 95.9797 0001627 97.0846 263.0176 14.29620905704094 ORBCOMM FM19 [+] 1 25415U 98046C 12034.19158657 .00000848 00000-0 38224-3 0 8740 2 25415 44.9961 96.1513 0000804 80.0975 279.9954 14.29629661704099 ORBCOMM FM20 [+] 1 25416U 98046D 12034.48132638 .00000671 00000-0 31363-3 0 3032 2 25416 44.9959 94.9907 0003488 238.3711 121.6787 14.29616563704091 ORBCOMM FM16 [+] 1 25417U 98046E 12034.35207151 .00000405 00000-0 21074-3 0 9143 2 25417 44.9995 96.7323 0002453 175.7397 184.3454 14.29616767704115 ORBCOMM FM15 [+] 1 25418U 98046F 12034.15293785 .00000211 00000-0 13561-3 0 9574 2 25418 45.0000 97.9208 0002589 152.3946 207.7068 14.29607549704086 ORBCOMM FM14 [+] 1 25419U 98046G 12033.60314125 .00000199 00000-0 13110-3 0 9201 2 25419 45.0001 100.3950 0001051 183.8616 176.2213 14.29614215704009 ORBCOMM FM13 [+] 1 25420U 98046H 12034.52146929 .00000184 00000-0 12535-3 0 8113 2 25420 45.0001 96.5146 0002059 139.5819 220.5142 14.29608339704167 ORBCOMM FM21 [+] 1 25475U 98053A 12034.53892369 .00000109 00000-0 96043-4 0 7885 2 25475 45.0095 179.8087 0002382 47.5912 312.5103 14.29737220697342 ORBCOMM FM22 [+] 1 25476U 98053B 12034.43308400 .00000627 00000-0 29586-3 0 4589 2 25476 45.0092 180.6821 0002393 102.4572 257.6546 14.29760282697312 ORBCOMM FM23 [+] 1 25477U 98053C 12034.41600849 .00000611 00000-0 28990-3 0 7797 2 25477 45.0092 180.4228 0002301 82.9368 277.1720 14.29745178697482 ORBCOMM FM24 [+] 1 25478U 98053D 12034.54631451 .00000297 00000-0 16870-3 0 3672 2 25478 45.0094 180.1313 0001543 137.7565 222.3379 14.29707131697481 ORBCOMM FM25 [+] 1 25479U 98053E 12034.80047717 .00000276 00000-0 16054-3 0 6582 2 25479 45.0092 178.3646 0004000 93.0498 267.0801 14.29753745697510 ORBCOMM FM26 [-] 1 25480U 98053F 12034.80818008 .00000596 00000-0 28324-3 0 7234 2 25480 45.0081 167.3734 0006349 114.0865 246.0644 14.29890365697631 ORBCOMM FM27 [+] 1 25481U 98053G 12034.53785626 .00000444 00000-0 22588-3 0 2495 2 25481 45.0076 179.2462 0001074 134.7511 225.3369 14.29616281697472 ORBCOMM FM28 [-] 1 25482U 98053H 12034.70429798 .00000271 00000-0 15553-3 0 3707 2 25482 45.0105 143.6270 0003897 117.7569 242.3667 14.30748640697946 ORBCOMM FM30 [+] 1 25980U 99065A 12033.86829710 .00000276 00000-0 16110-3 0 2960 2 25980 45.0361 349.9165 0005366 262.1330 97.8905 14.29584696634701 ORBCOMM FM31 [+] 1 25981U 99065B 12034.20308440 .00000176 00000-0 12230-3 0 3927 2 25981 45.0270 345.3598 0005036 269.7413 90.2824 14.29589655634741 ORBCOMM FM32 [P] 1 25982U 99065C 12034.22322691 .00000469 00000-0 23464-3 0 3335 2 25982 45.0237 342.3867 0006853 263.1045 96.8988 14.29794218634788 ORBCOMM FM33 [+] 1 25983U 99065D 12034.31076093 .00000461 00000-0 22302-3 0 3835 2 25983 45.0345 343.6997 0007107 187.6769 172.3970 14.31777450634809 ORBCOMM FM36 [+] 1 25984U 99065E 12033.70070643 .00000630 00000-0 29800-3 0 3426 2 25984 45.0411 352.4562 0001761 160.4456 199.6466 14.29601277634679 ORBCOMM FM35 [+] 1 25985U 99065F 12034.31584609 .00000535 00000-0 26122-3 0 3672 2 25985 45.0442 350.6469 0003820 277.1743 82.8665 14.29590387634766 ORBCOMM FM34 [+] 1 25986U 99065G 12034.30186891 .00000315 00000-0 17602-3 0 3054 2 25986 45.0433 350.1179 0003864 241.7379 118.3081 14.29580722634769 ORBCOMM FM38 [-] 1 33060U 08031A 12034.05881939 .00000465 00000-0 11013-3 0 1173 2 33060 48.4452 263.6163 0006921 148.1910 211.9409 14.69551747194593 ORBCOMM FM41 [-] 1 33061U 08031B 12034.02609037 .00000448 00000-0 10741-3 0 1323 2 33061 48.4479 264.4240 0006025 138.1508 221.9864 14.69507609194599 ORBCOMM FM29 [-] 1 33062U 08031C 12034.84024045 .00000404 00000-0 10078-3 0 1093 2 33062 48.4447 263.1945 0007925 144.0254 216.1147 14.69187099194673 ORBCOMM FM39 [-] 1 33063U 08031D 12034.46819769 .00000325 00000-0 88029-4 0 1260 2 33063 48.4441 266.6926 0009702 135.5608 224.6076 14.68926996194590 ORBCOMM FM37 [-] 1 33064U 08031E 12034.09314302 .00000514 00000-0 11919-3 0 1064 2 33064 48.4442 265.9458 0007715 143.7824 216.3617 14.69203329194573 ORBCOMM FM40 [-] 1 33065U 08031F 12034.73570183 .00000377 00000-0 96669-4 0 957 2 33065 48.4472 265.7760 0008760 143.8629 216.2878 14.69007822194631